Time,TemperatureF,DewpointF,PressureIn,WindDirection,WindDirectionDegrees,WindSpeedMPH,WindSpeedGustMPH,Humidity,HourlyPrecipIn,Conditions,Clouds,dailyrainin,SoftwareType,DateUTC
2013-05-15 00:04:00,70.0,65.3,30.04,SE,125,15.0,19.0,85,0.00,,,0.00,Wunderground v.1.15,2013-05-15 05:04:00,
2013-05-15 00:10:00,69.9,65.2,30.04,South,180,16.0,22.0,85,0.00,,,0.00,Wunderground v.1.15,2013-05-15 05:10:00,
2013-05-15 00:16:00,69.7,65.0,30.04,SSE,150,16.0,16.0,85,0.00,,,0.00,Wunderground v.1.15,2013-05-15 05:16:00,
2013-05-15 00:27:00,69.4,65.0,30.05,SSW,194,14.0,21.0,86,0.00,,,0.00,Wunderground v.1.15,2013-05-15 05:27:00,
2013-05-15 00:34:00,69.4,65.4,30.05,SSE,155,14.0,21.0,87,0.00,,,0.00,Wunderground v.1.15,2013-05-15 05:34:00,
2013-05-15 00:40:00,69.4,65.4,30.05,SSE,159,15.0,15.0,87,0.00,,,0.00,Wunderground v.1.15,2013-05-15 05:40:00,
2013-05-15 00:52:00,69.3,65.3,30.05,SSE,156,14.0,18.0,87,0.00,,,0.00,Wunderground v.1.15,2013-05-15 05:52:00,
2013-05-15 00:59:00,69.3,65.3,30.06,South,169,13.0,18.0,87,0.00,,,0.00,Wunderground v.1.15,2013-05-15 05:59:00,
2013-05-15 01:04:00,69.2,65.2,30.05,SE,143,12.0,16.0,87,0.00,,,0.00,Wunderground v.1.15,2013-05-15 06:04:00,
2013-05-15 01:14:00,69.0,65.3,30.05,SE,146,12.0,12.0,88,0.00,,,0.00,Wunderground v.1.15,2013-05-15 06:14:00,
2013-05-15 01:20:00,69.0,65.3,30.04,South,173,11.0,14.0,88,0.00,,,0.00,Wunderground v.1.15,2013-05-15 06:20:00,
2013-05-15 01:36:00,68.8,65.4,30.05,SSE,164,12.0,12.0,89,0.00,,,0.00,Wunderground v.1.15,2013-05-15 06:36:00,
2013-05-15 01:42:00,68.7,65.3,30.05,SE,129,12.0,13.0,89,0.00,,,0.00,Wunderground v.1.15,2013-05-15 06:42:00,
2013-05-15 02:02:00,68.0,65.6,30.04,SE,146,10.0,12.0,92,0.00,,,0.00,Wunderground v.1.15,2013-05-15 07:02:00,
2013-05-15 02:10:00,67.7,65.6,30.04,South,173,8.0,12.0,93,0.00,,,0.00,Wunderground v.1.15,2013-05-15 07:10:00,
2013-05-15 02:28:00,67.2,65.7,30.04,SSW,208,6.0,12.0,95,0.06,,,0.02,Wunderground v.1.15,2013-05-15 07:28:00,
2013-05-15 02:38:00,64.0,62.2,30.07,SSW,200,15.0,15.0,94,2.19,,,0.15,Wunderground v.1.15,2013-05-15 07:38:00,
2013-05-15 02:44:00,62.7,61.5,30.05,South,181,12.0,15.0,96,0.55,,,0.24,Wunderground v.1.15,2013-05-15 07:44:00,
2013-05-15 02:54:00,62.1,61.2,30.04,SSE,156,6.0,6.0,97,0.17,,,0.34,Wunderground v.1.15,2013-05-15 07:54:00,
2013-05-15 03:00:00,62.2,61.3,30.04,SSW,204,7.0,7.0,97,0.12,,,0.35,Wunderground v.1.15,2013-05-15 08:00:00,
2013-05-15 03:16:00,61.4,60.5,30.02,SSE,157,9.0,9.0,97,0.07,,,0.39,Wunderground v.1.15,2013-05-15 08:16:00,
2013-05-15 03:26:00,61.2,60.6,30.03,SSE,158,8.0,8.0,98,0.11,,,0.42,Wunderground v.1.15,2013-05-15 08:26:00,
2013-05-15 03:38:00,61.0,60.4,30.03,SSE,166,7.0,7.0,98,0.04,,,0.42,Wunderground v.1.15,2013-05-15 08:38:00,
2013-05-15 03:44:00,60.9,60.3,30.03,South,169,7.0,8.0,98,0.14,,,0.43,Wunderground v.1.15,2013-05-15 08:44:00,
2013-05-15 03:50:00,60.9,60.3,30.01,SE,134,9.0,15.0,98,0.82,,,0.48,Wunderground v.1.15,2013-05-15 08:50:00,
2013-05-15 03:56:00,60.9,60.3,30.01,ESE,108,10.0,15.0,98,0.22,,,0.51,Wunderground v.1.15,2013-05-15 08:56:00,
2013-05-15 04:02:00,61.0,60.4,30.03,SSE,148,11.0,17.0,98,0.17,,,0.53,Wunderground v.1.15,2013-05-15 09:02:00,
2013-05-15 04:08:00,61.1,60.5,29.98,SSE,150,11.0,17.0,98,1.92,,,0.61,Wunderground v.1.15,2013-05-15 09:08:00,
2013-05-15 04:14:00,61.5,60.9,29.96,SE,132,11.0,15.0,98,0.23,,,0.66,Wunderground v.1.15,2013-05-15 09:14:00,
2013-05-15 04:20:00,61.6,61.0,30.00,SSE,156,9.0,9.0,98,0.13,,,0.67,Wunderground v.1.15,2013-05-15 09:20:00,
2013-05-15 04:26:00,62.0,61.4,30.01,WSW,245,7.0,9.0,98,0.06,,,0.67,Wunderground v.1.15,2013-05-15 09:26:00,
2013-05-15 04:32:00,62.5,61.9,30.01,West,266,5.0,7.0,98,0.04,,,0.67,Wunderground v.1.15,2013-05-15 09:32:00,
2013-05-15 04:38:00,62.8,62.2,30.01,South,184,4.0,7.0,98,0.00,,,0.68,Wunderground v.1.15,2013-05-15 09:38:00,
2013-05-15 04:44:00,63.3,63.0,30.01,South,170,5.0,8.0,99,0.00,,,0.68,Wunderground v.1.15,2013-05-15 09:44:00,
2013-05-15 04:50:00,63.6,63.3,30.01,SSE,150,6.0,7.0,99,0.00,,,0.68,Wunderground v.1.15,2013-05-15 09:50:00,
2013-05-15 04:56:00,63.6,63.3,30.01,SSE,148,5.0,7.0,99,0.00,,,0.68,Wunderground v.1.15,2013-05-15 09:56:00,
2013-05-15 05:02:00,63.7,63.4,30.01,SW,218,4.0,7.0,99,0.00,,,0.68,Wunderground v.1.15,2013-05-15 10:02:00,
2013-05-15 05:08:00,63.8,63.5,30.01,SSE,167,5.0,7.0,99,0.00,,,0.68,Wunderground v.1.15,2013-05-15 10:08:00,
2013-05-15 05:14:00,64.1,63.8,30.02,SE,130,6.0,11.0,99,4.17,,,0.77,Wunderground v.1.15,2013-05-15 10:14:00,
2013-05-15 05:20:00,64.7,64.4,29.98,SE,141,8.0,8.0,99,0.54,,,0.90,Wunderground v.1.15,2013-05-15 10:20:00,
2013-05-15 05:26:00,64.7,64.4,29.97,SE,130,11.0,18.0,99,0.15,,,0.91,Wunderground v.1.15,2013-05-15 10:26:00,
2013-05-15 05:32:00,64.6,64.3,29.97,SSE,159,12.0,14.0,99,0.06,,,0.91,Wunderground v.1.15,2013-05-15 10:32:00,
2013-05-15 05:38:00,64.7,64.4,29.96,SE,129,11.0,14.0,99,0.04,,,0.91,Wunderground v.1.15,2013-05-15 10:38:00,
2013-05-15 05:44:00,64.8,64.5,29.96,SE,143,12.0,13.0,99,0.00,,,0.91,Wunderground v.1.15,2013-05-15 10:44:00,
2013-05-15 05:50:00,64.8,64.5,29.97,SSE,153,12.0,13.0,99,0.00,,,0.91,Wunderground v.1.15,2013-05-15 10:50:00,
2013-05-15 05:56:00,65.0,64.7,29.97,SE,128,12.0,13.0,99,0.00,,,0.91,Wunderground v.1.15,2013-05-15 10:56:00,
2013-05-15 06:02:00,65.2,64.9,29.96,SSE,158,13.0,13.0,99,0.00,,,0.91,Wunderground v.1.15,2013-05-15 11:02:00,
2013-05-15 06:08:00,65.2,64.9,29.97,SE,136,12.0,13.0,99,0.00,,,0.91,Wunderground v.1.15,2013-05-15 11:08:00,
2013-05-15 06:14:00,65.2,64.9,29.96,SE,127,11.0,15.0,99,0.00,,,0.91,Wunderground v.1.15,2013-05-15 11:14:00,
2013-05-15 06:20:00,65.3,65.0,29.97,SSE,150,11.0,12.0,99,0.00,,,0.91,Wunderground v.1.15,2013-05-15 11:20:00,
2013-05-15 06:26:00,65.3,65.0,29.97,SSE,151,10.0,12.0,99,0.00,,,0.91,Wunderground v.1.15,2013-05-15 11:26:00,
2013-05-15 06:32:00,65.3,65.0,29.98,South,174,10.0,10.0,99,0.00,,,0.91,Wunderground v.1.15,2013-05-15 11:32:00,
2013-05-15 06:38:00,65.4,65.1,29.98,SSE,155,10.0,12.0,99,0.00,,,0.91,Wunderground v.1.15,2013-05-15 11:38:00,
2013-05-15 06:44:00,65.6,65.3,29.98,SSE,150,11.0,15.0,99,0.00,,,0.91,Wunderground v.1.15,2013-05-15 11:44:00,
2013-05-15 06:50:00,65.7,65.4,29.98,SSE,158,11.0,12.0,99,0.00,,,0.91,Wunderground v.1.15,2013-05-15 11:50:00,
2013-05-15 06:56:00,65.9,65.6,29.98,ESE,122,11.0,20.0,99,0.00,,,0.91,Wunderground v.1.15,2013-05-15 11:56:00,
2013-05-15 07:02:00,65.9,65.6,29.98,SE,143,11.0,13.0,99,0.00,,,0.91,Wunderground v.1.15,2013-05-15 12:02:00,
2013-05-15 07:08:00,66.0,65.7,29.98,SSE,152,11.0,22.0,99,0.00,,,0.91,Wunderground v.1.15,2013-05-15 12:08:00,
2013-05-15 07:14:00,66.0,65.7,29.97,SSE,148,11.0,22.0,99,0.00,,,0.91,Wunderground v.1.15,2013-05-15 12:14:00,
2013-05-15 07:20:00,66.0,65.7,29.98,SSE,157,11.0,22.0,99,0.00,,,0.91,Wunderground v.1.15,2013-05-15 12:20:00,
2013-05-15 07:26:00,66.0,65.7,29.98,SE,141,12.0,22.0,99,0.00,,,0.91,Wunderground v.1.15,2013-05-15 12:26:00,
2013-05-15 07:32:00,66.1,65.8,29.98,South,191,12.0,22.0,99,0.00,,,0.91,Wunderground v.1.15,2013-05-15 12:32:00,
2013-05-15 07:38:00,66.1,65.8,29.98,SSE,148,13.0,23.0,99,0.00,,,0.91,Wunderground v.1.15,2013-05-15 12:38:00,
2013-05-15 07:44:00,66.1,65.8,29.98,South,188,15.0,22.0,99,0.00,,,0.91,Wunderground v.1.15,2013-05-15 12:44:00,
2013-05-15 07:50:00,66.2,65.9,29.98,SE,136,13.0,22.0,99,0.00,,,0.91,Wunderground v.1.15,2013-05-15 12:50:00,
2013-05-15 07:56:00,66.3,66.0,29.98,SE,127,13.0,22.0,99,0.00,,,0.91,Wunderground v.1.15,2013-05-15 12:56:00,
2013-05-15 08:02:00,66.3,66.0,29.99,SSE,158,13.0,22.0,99,0.00,,,0.91,Wunderground v.1.15,2013-05-15 13:02:00,
2013-05-15 08:08:00,66.4,66.1,29.98,SSE,166,12.0,22.0,99,0.00,,,0.91,Wunderground v.1.15,2013-05-15 13:08:00,
2013-05-15 08:14:00,66.4,66.1,29.99,South,186,13.0,15.0,99,0.00,,,0.91,Wunderground v.1.15,2013-05-15 13:14:00,
2013-05-15 08:20:00,66.4,66.1,29.99,SE,145,13.0,13.0,99,0.00,,,0.91,Wunderground v.1.15,2013-05-15 13:20:00,
2013-05-15 08:26:00,66.4,66.1,29.99,SE,127,13.0,14.0,99,0.00,,,0.91,Wunderground v.1.15,2013-05-15 13:26:00,
2013-05-15 08:32:00,66.4,66.1,29.99,SSE,150,12.0,16.0,99,0.00,,,0.91,Wunderground v.1.15,2013-05-15 13:32:00,
2013-05-15 08:38:00,66.5,66.2,29.99,SSE,165,11.0,18.0,99,0.00,,,0.91,Wunderground v.1.15,2013-05-15 13:38:00,
2013-05-15 08:44:00,66.6,66.3,29.99,SSE,153,11.0,13.0,99,0.00,,,0.91,Wunderground v.1.15,2013-05-15 13:44:00,
2013-05-15 08:50:00,66.7,66.4,29.99,South,183,12.0,12.0,99,0.00,,,0.91,Wunderground v.1.15,2013-05-15 13:50:00,
2013-05-15 08:56:00,66.7,66.4,29.99,SE,138,11.0,18.0,99,0.00,,,0.91,Wunderground v.1.15,2013-05-15 13:56:00,
2013-05-15 09:02:00,66.8,66.5,29.99,SSE,150,12.0,12.0,99,0.00,,,0.91,Wunderground v.1.15,2013-05-15 14:02:00,
2013-05-15 09:12:00,66.9,66.6,29.98,South,187,12.0,20.0,99,0.00,,,0.91,Wunderground v.1.15,2013-05-15 14:12:00,
2013-05-15 09:18:00,67.0,66.7,29.98,SE,145,13.0,20.0,99,0.00,,,0.91,Wunderground v.1.15,2013-05-15 14:18:00,
2013-05-15 09:24:00,67.1,66.8,29.98,South,170,13.0,20.0,99,0.00,,,0.91,Wunderground v.1.15,2013-05-15 14:24:00,
2013-05-15 09:30:00,67.1,66.8,29.98,SE,143,12.0,20.0,99,0.00,,,0.91,Wunderground v.1.15,2013-05-15 14:30:00,
2013-05-15 09:36:00,67.1,66.8,29.98,SSE,163,13.0,20.0,99,0.00,,,0.91,Wunderground v.1.15,2013-05-15 14:36:00,
2013-05-15 09:42:00,67.1,66.8,29.97,SSE,160,13.0,20.0,99,0.00,,,0.91,Wunderground v.1.15,2013-05-15 14:42:00,
2013-05-15 09:48:00,67.2,66.9,29.97,South,176,13.0,20.0,99,0.00,,,0.91,Wunderground v.1.15,2013-05-15 14:48:00,
2013-05-15 09:54:00,67.2,66.9,29.97,SSE,159,13.0,20.0,99,0.00,,,0.91,Wunderground v.1.15,2013-05-15 14:54:00,
2013-05-15 10:00:00,67.3,67.0,29.98,SSE,167,13.0,20.0,99,0.00,,,0.91,Wunderground v.1.15,2013-05-15 15:00:00,
2013-05-15 10:06:00,67.4,67.1,29.97,South,172,12.0,20.0,99,0.00,,,0.91,Wunderground v.1.15,2013-05-15 15:06:00,
2013-05-15 10:12:00,67.4,67.1,29.97,SE,141,13.0,20.0,99,0.00,,,0.91,Wunderground v.1.15,2013-05-15 15:12:00,
2013-05-15 10:18:00,67.5,67.2,29.97,SSE,152,14.0,21.0,99,0.00,,,0.91,Wunderground v.1.15,2013-05-15 15:18:00,
2013-05-15 10:24:00,67.7,67.4,29.97,South,181,15.0,20.0,99,0.00,,,0.91,Wunderground v.1.15,2013-05-15 15:24:00,
2013-05-15 10:30:00,67.9,67.6,29.96,SSE,158,15.0,15.0,99,0.00,,,0.91,Wunderground v.1.15,2013-05-15 15:30:00,
2013-05-15 10:36:00,68.1,67.8,29.96,SE,132,15.0,20.0,99,0.00,,,0.91,Wunderground v.1.15,2013-05-15 15:36:00,
2013-05-15 10:42:00,68.1,67.8,29.96,SSW,198,15.0,15.0,99,0.00,,,0.91,Wunderground v.1.15,2013-05-15 15:42:00,
2013-05-15 10:54:00,68.2,67.9,29.96,SSE,162,14.0,20.0,99,0.00,,,0.91,Wunderground v.1.15,2013-05-15 15:54:00,
2013-05-15 11:00:00,68.2,67.9,29.96,West,267,14.0,14.0,99,0.00,,,0.91,Wunderground v.1.15,2013-05-15 16:00:00,
2013-05-15 11:06:00,68.2,67.9,29.96,SSE,162,14.0,20.0,99,0.00,,,0.91,Wunderground v.1.15,2013-05-15 16:06:00,
2013-05-15 11:12:00,68.2,67.9,29.96,South,176,13.0,20.0,99,0.00,,,0.91,Wunderground v.1.15,2013-05-15 16:12:00,
2013-05-15 11:18:00,68.2,67.9,29.97,SSE,159,13.0,20.0,99,0.00,,,0.91,Wunderground v.1.15,2013-05-15 16:18:00,
2013-05-15 11:24:00,68.3,68.0,29.97,SSE,167,13.0,20.0,99,0.00,,,0.91,Wunderground v.1.15,2013-05-15 16:24:00,
2013-05-15 11:30:00,68.4,68.1,29.97,SSE,156,11.0,11.0,99,0.00,,,0.91,Wunderground v.1.15,2013-05-15 16:30:00,
2013-05-15 11:40:00,68.4,68.1,29.98,South,175,10.0,10.0,99,0.00,,,0.91,Wunderground v.1.15,2013-05-15 16:40:00,
2013-05-15 11:46:00,68.5,68.2,29.97,South,169,10.0,20.0,99,0.00,,,0.91,Wunderground v.1.15,2013-05-15 16:46:00,
2013-05-15 11:54:00,68.8,68.5,29.96,SE,142,13.0,20.0,99,0.00,,,0.91,Wunderground v.1.15,2013-05-15 16:54:00,
2013-05-15 12:00:00,68.8,68.5,29.95,SSE,155,14.0,22.0,99,0.00,,,0.91,Wunderground v.1.15,2013-05-15 17:00:00,
2013-05-15 12:06:00,69.3,69.0,29.94,South,170,16.0,22.0,99,0.00,,,0.91,Wunderground v.1.15,2013-05-15 17:06:00,
2013-05-15 12:12:00,70.5,69.0,29.94,South,181,16.0,22.0,95,0.00,,,0.91,Wunderground v.1.15,2013-05-15 17:12:00,
2013-05-15 12:18:00,71.2,69.4,29.94,SSW,204,15.0,22.0,94,0.00,,,0.91,Wunderground v.1.15,2013-05-15 17:18:00,
2013-05-15 12:24:00,72.2,69.7,29.93,SW,225,14.0,20.0,92,0.00,,,0.91,Wunderground v.1.15,2013-05-15 17:24:00,
2013-05-15 12:30:00,72.5,69.4,29.93,South,170,14.0,14.0,90,0.00,,,0.91,Wunderground v.1.15,2013-05-15 17:30:00,
2013-05-15 12:36:00,73.5,69.4,29.93,South,184,15.0,20.0,87,0.00,,,0.91,Wunderground v.1.15,2013-05-15 17:36:00,
2013-05-15 12:42:00,74.1,69.6,29.93,SSW,211,13.0,19.0,86,0.00,,,0.91,Wunderground v.1.15,2013-05-15 17:42:00,
2013-05-15 12:48:00,74.6,69.4,29.92,South,184,14.0,20.0,84,0.00,,,0.91,Wunderground v.1.15,2013-05-15 17:48:00,
2013-05-15 12:54:00,74.8,69.3,29.92,SSE,165,16.0,21.0,83,0.00,,,0.91,Wunderground v.1.15,2013-05-15 17:54:00,
2013-05-15 13:00:00,75.3,69.1,29.92,South,181,18.0,23.0,81,0.00,,,0.91,Wunderground v.1.15,2013-05-15 18:00:00,
2013-05-15 13:06:00,75.1,69.2,29.93,South,172,19.0,23.0,82,0.00,,,0.91,Wunderground v.1.15,2013-05-15 18:06:00,
2013-05-15 13:12:00,75.6,69.4,29.93,SSE,160,17.0,20.0,81,0.00,,,0.91,Wunderground v.1.15,2013-05-15 18:12:00,
2013-05-15 13:18:00,75.7,69.1,29.93,SE,139,16.0,20.0,80,0.00,,,0.91,Wunderground v.1.15,2013-05-15 18:18:00,
2013-05-15 13:24:00,75.5,68.9,29.92,SE,143,18.0,20.0,80,0.00,,,0.91,Wunderground v.1.15,2013-05-15 18:24:00,
2013-05-15 13:30:00,76.3,69.7,29.92,South,179,16.0,20.0,80,0.00,,,0.91,Wunderground v.1.15,2013-05-15 18:30:00,
2013-05-15 13:38:00,76.3,69.3,29.92,South,174,15.0,20.0,79,0.00,,,0.91,Wunderground v.1.15,2013-05-15 18:38:00,
2013-05-15 13:44:00,76.8,69.4,29.92,South,181,16.0,20.0,78,0.00,,,0.91,Wunderground v.1.15,2013-05-15 18:44:00,
2013-05-15 13:50:00,76.7,68.9,29.92,SSE,163,16.0,21.0,77,0.00,,,0.91,Wunderground v.1.15,2013-05-15 18:50:00,
2013-05-15 13:56:00,77.3,69.5,29.92,SSE,148,16.0,21.0,77,0.00,,,0.91,Wunderground v.1.15,2013-05-15 18:56:00,
2013-05-15 14:02:00,77.6,69.4,29.92,South,189,14.0,16.0,76,0.00,,,0.91,Wunderground v.1.15,2013-05-15 19:02:00,
2013-05-15 14:08:00,77.7,69.5,29.92,SSW,195,12.0,20.0,76,0.00,,,0.91,Wunderground v.1.15,2013-05-15 19:08:00,
2013-05-15 14:14:00,77.1,68.9,29.91,South,176,14.0,20.0,76,0.00,,,0.91,Wunderground v.1.15,2013-05-15 19:14:00,
2013-05-15 14:20:00,77.8,68.8,29.90,SSE,162,15.0,15.0,74,0.00,,,0.91,Wunderground v.1.15,2013-05-15 19:20:00,
2013-05-15 14:26:00,78.4,68.6,29.89,SSE,159,16.0,20.0,72,0.00,,,0.91,Wunderground v.1.15,2013-05-15 19:26:00,
2013-05-15 14:32:00,78.6,68.8,29.89,SSE,150,17.0,24.0,72,0.00,,,0.91,Wunderground v.1.15,2013-05-15 19:32:00,
2013-05-15 14:38:00,79.3,69.1,29.88,SSE,164,16.0,24.0,71,0.00,,,0.91,Wunderground v.1.15,2013-05-15 19:38:00,
2013-05-15 14:44:00,79.6,69.0,29.88,ESE,122,16.0,20.0,70,0.00,,,0.91,Wunderground v.1.15,2013-05-15 19:44:00,
2013-05-15 14:50:00,79.0,68.8,29.88,South,190,16.0,20.0,71,0.00,,,0.91,Wunderground v.1.15,2013-05-15 19:50:00,
2013-05-15 14:56:00,79.2,69.0,29.88,SSE,150,16.0,20.0,71,0.00,,,0.91,Wunderground v.1.15,2013-05-15 19:56:00,
2013-05-15 15:02:00,80.1,69.4,29.87,South,170,16.0,18.0,70,0.00,,,0.91,Wunderground v.1.15,2013-05-15 20:02:00,
2013-05-15 15:08:00,80.1,69.8,29.87,SE,142,14.0,20.0,71,0.00,,,0.91,Wunderground v.1.15,2013-05-15 20:08:00,
2013-05-15 15:14:00,80.3,69.6,29.87,SE,135,15.0,20.0,70,0.00,,,0.91,Wunderground v.1.15,2013-05-15 20:14:00,
2013-05-15 15:20:00,81.0,69.9,29.86,South,183,14.0,20.0,69,0.00,,,0.91,Wunderground v.1.15,2013-05-15 20:20:00,
2013-05-15 15:26:00,81.2,70.1,29.86,SSE,150,14.0,20.0,69,0.00,,,0.91,Wunderground v.1.15,2013-05-15 20:26:00,
2013-05-15 15:32:00,81.2,70.1,29.86,SSW,195,15.0,20.0,69,0.00,,,0.91,Wunderground v.1.15,2013-05-15 20:32:00,
2013-05-15 15:38:00,80.4,70.5,29.86,South,180,15.0,20.0,72,0.00,,,0.91,Wunderground v.1.15,2013-05-15 20:38:00,
2013-05-15 15:44:00,80.5,69.4,29.85,SE,141,14.0,20.0,69,0.00,,,0.91,Wunderground v.1.15,2013-05-15 20:44:00,
2013-05-15 15:50:00,80.5,69.4,29.85,SSE,156,14.0,14.0,69,0.00,,,0.91,Wunderground v.1.15,2013-05-15 20:50:00,
2013-05-15 15:56:00,81.1,70.0,29.85,SSE,165,13.0,20.0,69,0.00,,,0.91,Wunderground v.1.15,2013-05-15 20:56:00,
2013-05-15 16:02:00,81.4,70.2,29.85,South,186,13.0,20.0,69,0.00,,,0.91,Wunderground v.1.15,2013-05-15 21:02:00,
2013-05-15 16:12:00,81.8,68.4,29.84,SSE,150,14.0,20.0,64,0.00,,,0.91,Wunderground v.1.15,2013-05-15 21:12:00,
2013-05-15 16:18:00,81.6,69.1,29.83,SSE,160,14.0,20.0,66,0.00,,,0.91,Wunderground v.1.15,2013-05-15 21:18:00,
2013-05-15 16:24:00,81.4,68.5,29.83,South,186,14.0,20.0,65,0.00,,,0.91,Wunderground v.1.15,2013-05-15 21:24:00,
2013-05-15 16:30:00,81.9,69.4,29.83,SSE,167,14.0,14.0,66,0.00,,,0.91,Wunderground v.1.15,2013-05-15 21:30:00,
2013-05-15 16:36:00,82.3,69.4,29.82,SSE,156,14.0,20.0,65,0.00,,,0.91,Wunderground v.1.15,2013-05-15 21:36:00,
2013-05-15 16:42:00,82.8,69.8,29.83,SE,136,13.0,22.0,65,0.00,,,0.91,Wunderground v.1.15,2013-05-15 21:42:00,
2013-05-15 16:48:00,82.9,69.5,29.82,SSE,153,15.0,22.0,64,0.00,,,0.91,Wunderground v.1.15,2013-05-15 21:48:00,
2013-05-15 16:54:00,82.9,69.0,29.82,SSE,161,16.0,20.0,63,0.00,,,0.91,Wunderground v.1.15,2013-05-15 21:54:00,
2013-05-15 17:00:00,82.6,69.2,29.81,South,172,17.0,17.0,64,0.00,,,0.91,Wunderground v.1.15,2013-05-15 22:00:00,
2013-05-15 17:06:00,83.1,69.2,29.81,SSE,148,16.0,22.0,63,0.00,,,0.91,Wunderground v.1.15,2013-05-15 22:06:00,
2013-05-15 17:12:00,83.3,69.4,29.81,South,172,15.0,20.0,63,0.00,,,0.91,Wunderground v.1.15,2013-05-15 22:12:00,
2013-05-15 17:18:00,83.4,69.5,29.80,SSE,162,16.0,21.0,63,0.00,,,0.91,Wunderground v.1.15,2013-05-15 22:18:00,
2013-05-15 17:24:00,82.8,68.9,29.80,South,169,18.0,28.0,63,0.00,,,0.91,Wunderground v.1.15,2013-05-15 22:24:00,
2013-05-15 17:30:00,82.4,68.5,29.80,SSE,158,19.0,23.0,63,0.00,,,0.91,Wunderground v.1.15,2013-05-15 22:30:00,
2013-05-15 17:38:00,82.0,69.1,29.80,SSW,194,19.0,23.0,65,0.00,,,0.91,Wunderground v.1.15,2013-05-15 22:38:00,
2013-05-15 17:44:00,82.0,69.5,29.80,SSE,155,19.0,24.0,66,0.00,,,0.91,Wunderground v.1.15,2013-05-15 22:44:00,
2013-05-15 17:50:00,82.1,69.2,29.80,South,169,16.0,16.0,65,0.00,,,0.91,Wunderground v.1.15,2013-05-15 22:50:00,
2013-05-15 17:56:00,82.1,69.6,29.80,SE,144,16.0,24.0,66,0.00,,,0.91,Wunderground v.1.15,2013-05-15 22:56:00,
2013-05-15 18:02:00,82.3,69.4,29.81,SE,125,15.0,20.0,65,0.00,,,0.91,Wunderground v.1.15,2013-05-15 23:02:00,
2013-05-15 18:08:00,81.9,69.0,29.81,SE,131,15.0,20.0,65,0.00,,,0.91,Wunderground v.1.15,2013-05-15 23:08:00,
2013-05-15 18:14:00,82.1,69.2,29.80,SE,142,13.0,20.0,65,0.00,,,0.91,Wunderground v.1.15,2013-05-15 23:14:00,
2013-05-15 18:20:00,81.6,69.1,29.81,SSE,155,13.0,20.0,66,0.00,,,0.91,Wunderground v.1.15,2013-05-15 23:20:00,
2013-05-15 18:26:00,81.4,68.9,29.80,SSE,148,12.0,20.0,66,0.00,,,0.91,Wunderground v.1.15,2013-05-15 23:26:00,
2013-05-15 18:32:00,81.3,68.9,29.80,SSE,163,13.0,20.0,66,0.00,,,0.91,Wunderground v.1.15,2013-05-15 23:32:00,
2013-05-15 18:38:00,81.3,68.9,29.79,SSE,158,13.0,20.0,66,0.00,,,0.91,Wunderground v.1.15,2013-05-15 23:38:00,
2013-05-15 18:44:00,81.3,68.9,29.79,SSE,150,12.0,20.0,66,0.00,,,0.91,Wunderground v.1.15,2013-05-15 23:44:00,
2013-05-15 18:50:00,81.2,68.8,29.79,SSE,163,11.0,11.0,66,0.00,,,0.91,Wunderground v.1.15,2013-05-15 23:50:00,
2013-05-15 18:56:00,81.2,68.8,29.79,SSE,167,11.0,20.0,66,0.00,,,0.91,Wunderground v.1.15,2013-05-15 23:56:00,
2013-05-15 19:02:00,80.9,69.3,29.79,SE,145,11.0,20.0,68,0.00,,,0.91,Wunderground v.1.15,2013-05-16 00:02:00,
2013-05-15 19:08:00,80.3,69.6,29.79,ESE,123,12.0,20.0,70,0.00,,,0.91,Wunderground v.1.15,2013-05-16 00:08:00,
2013-05-15 19:14:00,79.7,69.5,29.79,SSE,150,12.0,21.0,71,0.00,,,0.91,Wunderground v.1.15,2013-05-16 00:14:00,
2013-05-15 19:20:00,79.2,69.8,29.78,SE,125,14.0,14.0,73,0.00,,,0.91,Wunderground v.1.15,2013-05-16 00:20:00,
2013-05-15 19:26:00,78.9,69.9,29.78,South,177,13.0,20.0,74,0.00,,,0.91,Wunderground v.1.15,2013-05-16 00:26:00,
2013-05-15 19:32:00,78.6,69.6,29.77,ESE,122,15.0,20.0,74,0.00,,,0.91,Wunderground v.1.15,2013-05-16 00:32:00,
2013-05-15 19:38:00,78.3,69.7,29.77,ESE,117,15.0,20.0,75,0.00,,,0.91,Wunderground v.1.15,2013-05-16 00:38:00,
2013-05-15 19:44:00,77.7,69.9,29.77,SSE,148,14.0,20.0,77,0.00,,,0.91,Wunderground v.1.15,2013-05-16 00:44:00,
2013-05-15 19:50:00,77.2,69.8,29.78,ESE,122,15.0,20.0,78,0.00,,,0.91,Wunderground v.1.15,2013-05-16 00:50:00,
2013-05-15 19:56:00,76.7,69.7,29.78,SE,144,14.0,20.0,79,0.00,,,0.91,Wunderground v.1.15,2013-05-16 00:56:00,
2013-05-15 20:02:00,76.3,69.7,29.78,SE,129,14.0,23.0,80,0.00,,,0.91,Wunderground v.1.15,2013-05-16 01:02:00,
2013-05-15 20:08:00,76.0,69.7,29.78,SSE,150,15.0,23.0,81,0.00,,,0.91,Wunderground v.1.15,2013-05-16 01:08:00,
2013-05-15 20:14:00,75.5,69.3,29.78,SSE,154,16.0,20.0,81,0.00,,,0.91,Wunderground v.1.15,2013-05-16 01:14:00,
2013-05-15 20:20:00,75.1,69.2,29.78,SSE,148,15.0,15.0,82,0.00,,,0.91,Wunderground v.1.15,2013-05-16 01:20:00,
2013-05-15 20:28:00,74.9,69.4,29.78,SSE,155,15.0,20.0,83,0.00,,,0.91,Wunderground v.1.15,2013-05-16 01:28:00,
2013-05-15 20:34:00,74.8,69.3,29.79,South,181,15.0,20.0,83,0.00,,,0.91,Wunderground v.1.15,2013-05-16 01:34:00,
2013-05-15 20:40:00,74.7,69.5,29.78,SE,131,15.0,15.0,84,0.00,,,0.91,Wunderground v.1.15,2013-05-16 01:40:00,
2013-05-15 20:46:00,74.5,69.3,29.78,SSE,156,15.0,20.0,84,0.00,,,0.91,Wunderground v.1.15,2013-05-16 01:46:00,
2013-05-15 20:52:00,74.4,69.6,29.79,SE,141,14.0,20.0,85,0.00,,,0.91,Wunderground v.1.15,2013-05-16 01:52:00,
2013-05-15 20:58:00,74.3,69.5,29.79,SE,145,15.0,20.0,85,0.00,,,0.91,Wunderground v.1.15,2013-05-16 01:58:00,
2013-05-15 21:04:00,74.2,69.4,29.79,SSE,158,14.0,20.0,85,0.00,,,0.91,Wunderground v.1.15,2013-05-16 02:04:00,
2013-05-15 21:10:00,74.1,69.6,29.79,SSE,167,14.0,14.0,86,0.00,,,0.91,Wunderground v.1.15,2013-05-16 02:10:00,
2013-05-15 21:16:00,73.9,69.4,29.79,SE,145,14.0,20.0,86,0.00,,,0.91,Wunderground v.1.15,2013-05-16 02:16:00,
2013-05-15 21:22:00,73.6,69.5,29.79,SSE,167,14.0,20.0,87,0.00,,,0.91,Wunderground v.1.15,2013-05-16 02:22:00,
2013-05-15 21:28:00,73.5,69.7,29.79,SE,145,15.0,20.0,88,0.00,,,0.91,Wunderground v.1.15,2013-05-16 02:28:00,
2013-05-15 21:34:00,73.4,69.6,29.80,South,179,16.0,20.0,88,0.00,,,0.91,Wunderground v.1.15,2013-05-16 02:34:00,
2013-05-15 21:40:00,73.2,69.4,29.80,South,174,14.0,14.0,88,0.00,,,0.91,Wunderground v.1.15,2013-05-16 02:40:00,
2013-05-15 21:46:00,73.1,69.7,29.80,SE,143,13.0,20.0,89,0.00,,,0.91,Wunderground v.1.15,2013-05-16 02:46:00,
2013-05-15 21:54:00,72.9,69.5,29.80,SSE,158,13.0,20.0,89,0.00,,,0.91,Wunderground v.1.15,2013-05-16 02:54:00,
2013-05-15 22:00:00,72.7,69.3,29.80,SSE,160,13.0,20.0,89,0.00,,,0.91,Wunderground v.1.15,2013-05-16 03:00:00,
2013-05-15 22:06:00,72.7,69.3,29.80,SE,134,14.0,20.0,89,0.00,,,0.91,Wunderground v.1.15,2013-05-16 03:06:00,
2013-05-15 22:12:00,72.7,69.3,29.80,SSE,167,15.0,20.0,89,0.00,,,0.91,Wunderground v.1.15,2013-05-16 03:12:00,
2013-05-15 22:18:00,72.6,69.5,29.80,SE,145,16.0,20.0,90,0.00,,,0.91,Wunderground v.1.15,2013-05-16 03:18:00,
2013-05-15 22:24:00,72.5,69.4,29.81,SSE,161,15.0,20.0,90,0.00,,,0.91,Wunderground v.1.15,2013-05-16 03:24:00,
2013-05-15 22:30:00,72.4,69.3,29.81,SSE,155,14.0,14.0,90,0.00,,,0.91,Wunderground v.1.15,2013-05-16 03:30:00,
2013-05-15 22:36:00,72.3,69.2,29.81,SE,141,13.0,20.0,90,0.00,,,0.91,Wunderground v.1.15,2013-05-16 03:36:00,
2013-05-15 22:42:00,72.2,69.4,29.81,SSE,155,14.0,20.0,91,0.00,,,0.91,Wunderground v.1.15,2013-05-16 03:42:00,
2013-05-15 22:48:00,72.1,69.3,29.81,SSE,148,14.0,20.0,91,0.00,,,0.91,Wunderground v.1.15,2013-05-16 03:48:00,
2013-05-15 22:54:00,72.0,69.2,29.81,SSE,148,15.0,20.0,91,0.00,,,0.91,Wunderground v.1.15,2013-05-16 03:54:00,
2013-05-15 23:00:00,71.9,69.1,29.81,SE,141,17.0,20.0,91,0.00,,,0.91,Wunderground v.1.15,2013-05-16 04:00:00,
2013-05-15 23:02:00,71.9,69.1,29.81,SSE,150,17.0,22.0,91,0.00,,,0.91,Wunderground v.1.15,2013-05-16 04:02:00,
2013-05-15 23:04:00,71.9,69.1,29.81,SSE,167,17.0,22.0,91,0.00,,,0.91,Wunderground v.1.15,2013-05-16 04:04:00,
2013-05-15 23:06:00,71.8,69.0,29.81,SE,137,17.0,22.0,91,0.00,,,0.91,Wunderground v.1.15,2013-05-16 04:06:00,
2013-05-15 23:08:00,71.8,69.3,29.81,SSE,155,17.0,23.0,92,0.00,,,0.91,Wunderground v.1.15,2013-05-16 04:08:00,
2013-05-15 23:14:00,71.7,69.3,29.81,South,170,16.0,25.0,92,0.00,,,0.91,Wunderground v.1.15,2013-05-16 04:14:00,
2013-05-15 23:20:00,71.6,69.2,29.81,SE,133,16.0,20.0,92,0.00,,,0.91,Wunderground v.1.15,2013-05-16 04:20:00,
2013-05-15 23:26:00,71.5,69.1,29.80,South,184,16.0,20.0,92,0.00,,,0.91,Wunderground v.1.15,2013-05-16 04:26:00,
2013-05-15 23:32:00,71.4,69.0,29.79,SSW,212,18.0,20.0,92,0.00,,,0.91,Wunderground v.1.15,2013-05-16 04:32:00,
2013-05-15 23:38:00,71.3,68.9,29.79,SSE,154,19.0,26.0,92,0.00,,,0.91,Wunderground v.1.15,2013-05-16 04:38:00,
2013-05-15 23:44:00,71.2,69.1,29.79,South,175,19.0,21.0,93,0.00,,,0.91,Wunderground v.1.15,2013-05-16 04:44:00,
2013-05-15 23:50:00,71.1,69.0,29.79,SE,131,18.0,21.0,93,0.00,,,0.91,Wunderground v.1.15,2013-05-16 04:50:00,
2013-05-15 23:56:00,71.1,69.0,29.78,SSE,163,18.0,23.0,93,0.00,,,0.91,Wunderground v.1.15,2013-05-16 04:56:00,